Location: Dumbr?vi?a
(45.8833°N, 22.7000°E)
Time: 14:31:45
(UTC+00:00)

Cosmos 1844 Rocket - Pass Details

Date: 03 March 2021
Orbit: 826 x 843 km, 71.0° (Epoch: 11 April)

Event Time Altitude Azimuth Distance (km) Brightness Sun altitude
Rises 16:39:45 0° 339° (NNW) 3,376 6.1 -4.5°
Reaches altitude 10° 16:42:29 10° 350° (N) 2,438 5.2 -4.9°
Maximum altitude 16:47:24 31° 52° (NE) 1,422 3.5 -5.8°
Drops below altitude 10° 16:52:18 10° 113° (ESE) 2,427 4.5 -6.7°
Enters shadow 16:54:19 - 122° (ESE) 3,116 5.1 -7.0°
